SCP
0 0 0 0 0 0 0 0 0 0 0 0 0 0 0 0 0 0 0 0 0 0
0 0 0 0 0 0 0 0 0 0 0 0 0 0 0 0 0 0 0 0 0 0
0 0 0 0 0 0 0 0 0 0 0 0 0 0 0 0 0 0 0 0 0 0
0 0 0 0 0 0 0 0 0 0 0 0 0 0 0 0 0 0 0 0 0 0
0 0 0 0 0 0 0 0 0 0 0 0 0 0 0 0 0 0 0 0 0 0
0 0 0 0 0 0 0 0 0 0 0 0 0 0 0 0 0 0 0 0 0 0
0 0 0 0 0 0 0 0 0 0 0 0 0 0 0 0 0 0 0 0 0 0
0 0 0 0 0 0 0 0 0 0 0 0 0 0 0 0 0 0 0 0 0 0
0 0 0 0 0 0 0 0 0 0 0 0 0 0 0 0 0 0 0 0 0 0
0 0 0 0 0 0 0 0 0 0 0 0 0 0 0 -0 0 0 0 0 0 0
0 0 0 0 0 0 0 0 0 0 0 0 0 -0 -0 -0 0 0 0 0 0 0
0 0 0 0 0 0 0 0 0 0 0 0 0 -0 -0 -0 0 0 0 0 0 0
0 0 0 0 0 0 0 0 0 0 0 0 0 -0 -0 -0 0 0 0 0 0 0
0 0 0 0 0 0 0 0 0 -0 0 0 0 0 -0 -0 -0 0 0 0 0 0
Wind_Speed_500mb
32 30 31 33 38 40 41 43 46 49 52 55 57 58 57 58 60 60 62 64 65 68
26 27 29 31 34 37 40 42 44 45 46 46 48 51 54 58 61 62 61 64 64 67
29 29 27 28 30 33 35 36 37 39 42 45 47 49 52 53 55 57 59 57 62 67
28 27 27 27 26 27 29 31 33 36 39 43 46 48 51 52 53 56 58 57 60 65
27 25 24 25 27 29 31 33 36 39 41 43 44 46 48 50 51 55 57 59 60 62
29 28 28 29 30 30 30 32 34 37 39 42 44 45 46 49 51 54 56 58 60 62
34 34 33 34 33 30 29 31 33 36 39 42 45 48 49 52 55 58 60 60 60 62
44 41 40 37 34 32 33 35 38 43 47 51 54 55 56 58 63 67 71 72 71 68
51 48 45 41 38 37 39 42 46 50 56 61 65 66 66 68 73 75 77 81 80 78
56 53 46 45 42 44 46 52 56 61 67 75 77 78 78 78 81 84 85 84 84 86
60 54 50 49 51 51 56 63 71 76 81 86 89 91 92 89 88 89 91 90 88 89
62 58 55 60 58 59 65 73 80 83 89 94 101 101 101 98 94 95 95 92 92 92
62 64 67 63 64 68 73 82 89 96 100 106 114 113 112 104 99 101 100 100 99 96
65 63 59 64 70 76 83 91 99 108 115 120 122 126 118 108 101 98 102 106 107 102
Wind_Direction_500mb
247 248 251 254 261 264 269 277 286 292 297 300 301 301 300 298 295 292 288 285 284 285
243 243 246 252 260 270 277 284 289 293 297 300 302 302 300 297 296 294 291 288 287 285
236 242 251 262 270 275 279 283 287 290 293 294 295 295 297 298 298 295 292 287 287 287
238 247 254 260 267 274 279 283 286 288 289 290 292 293 294 297 300 302 304 302 295 289
241 248 257 265 271 275 279 283 287 289 291 293 295 296 297 298 299 299 300 300 300 300
244 253 257 261 263 266 273 280 285 290 293 295 296 298 301 301 301 300 300 301 301 303
247 249 252 256 260 264 270 276 284 295 303 306 305 304 303 302 300 298 298 297 298 300
248 245 248 251 253 259 271 285 296 303 306 309 310 311 311 309 306 304 302 302 303 303
245 243 244 245 251 261 273 285 295 303 308 309 311 313 314 312 310 307 305 305 306 308
245 244 244 248 257 269 278 285 291 299 306 309 310 313 315 315 312 309 307 306 308 307
242 244 245 252 261 270 279 286 291 296 301 305 308 311 313 314 312 308 306 307 308 306
241 243 250 257 266 275 283 290 294 296 300 304 306 308 310 311 309 306 305 306 304 303
239 244 251 262 273 282 289 293 295 297 300 302 303 306 306 306 306 303 304 302 300 300
236 246 259 270 279 286 291 293 295 296 298 299 301 302 303 304 304 304 303 301 300 300
Wind_Speed_850mb
32 30 31 33 38 40 41 43 46 49 52 55 57 58 57 58 60 60 62 64 65 68
26 27 29 31 34 37 40 42 44 45 46 46 48 51 54 58 61 62 61 64 64 67
29 29 27 28 30 33 35 36 37 39 42 45 47 49 52 53 55 57 59 57 62 67
28 27 27 27 26 27 29 31 33 36 39 43 46 48 51 52 53 56 58 57 60 65
27 25 24 25 27 29 31 33 36 39 41 43 44 46 48 50 51 55 57 59 60 62
29 28 28 29 30 30 30 32 34 37 39 42 44 45 46 49 51 54 56 58 60 62
34 34 33 34 33 30 29 31 33 36 39 42 45 48 49 52 55 58 60 60 60 62
44 41 40 37 34 32 33 35 38 43 47 51 54 55 56 58 63 67 71 72 71 68
51 48 45 41 38 37 39 42 46 50 56 61 65 66 66 68 73 75 77 81 80 78
56 53 46 45 42 44 46 52 56 61 67 75 77 78 78 78 81 84 85 84 84 86
60 54 50 49 51 51 56 63 71 76 81 86 89 91 92 89 88 89 91 90 88 89
62 58 55 60 58 59 65 73 80 83 89 94 101 101 101 98 94 95 95 92 92 92
62 64 67 63 64 68 73 82 89 96 100 106 114 113 112 104 99 101 100 100 99 96
65 63 59 64 70 76 83 91 99 108 115 120 122 126 118 108 101 98 102 106 107 102
Wind_Direction_850mb
247 248 251 254 261 264 269 277 286 292 297 300 301 301 300 298 295 292 288 285 284 285
243 243 246 252 260 270 277 284 289 293 297 300 302 302 300 297 296 294 291 288 287 285
236 242 251 262 270 275 279 283 287 290 293 294 295 295 297 298 298 295 292 287 287 287
238 247 254 260 267 274 279 283 286 288 289 290 292 293 294 297 300 302 304 302 295 289
241 248 257 265 271 275 279 283 287 289 291 293 295 296 297 298 299 299 300 300 300 300
244 253 257 261 263 266 273 280 285 290 293 295 296 298 301 301 301 300 300 301 301 303
247 249 252 256 260 264 270 276 284 295 303 306 305 304 303 302 300 298 298 297 298 300
248 245 248 251 253 259 271 285 296 303 306 309 310 311 311 309 306 304 302 302 303 303
245 243 244 245 251 261 273 285 295 303 308 309 311 313 314 312 310 307 305 305 306 308
245 244 244 248 257 269 278 285 291 299 306 309 310 313 315 315 312 309 307 306 308 307
242 244 245 252 261 270 279 286 291 296 301 305 308 311 313 314 312 308 306 307 308 306
241 243 250 257 266 275 283 290 294 296 300 304 306 308 310 311 309 306 305 306 304 303
239 244 251 262 273 282 289 293 295 297 300 302 303 306 306 306 306 303 304 302 300 300
236 246 259 270 279 286 291 293 295 296 298 299 301 302 303 304 304 304 303 301 300 300